This demonstration page uses our WeatherBlox Daily Observations layout. Learn more.

Left ArrowRight Arrow

Hourly Observations for April 6, 2021

Temp ( °F °C ) Dew Point ( °F °C ) Humidity (%) Winds ( mph kmh ) Pressure ( in mb ) Visibility ( mi km ) Precip ( " mm )
12:53 am 00:53 Clear 31 -0.6 26 -3.3 82 82 WSW 6 9 29.93 1014 10 16 0.00 0.00
1:53 am 01:53 Clear 32 0 28 -2.2 85 85 SW 5 7 29.93 1014 10 16 0.00 0.00
2:53 am 02:53 Clear 30 -1.1 27 -2.8 88 88 SSW 10 17 29.93 1014 10 16 0.00 0.00
3:53 am 03:53 Clear 28 -2.2 26 -3.3 92 92 SW 5 7 29.94 1014 10 16 0.00 0.00
4:53 am 04:53 Clear 27 -2.8 25 -3.9 92 92 SW 7 11 29.96 1014 10 16 0.00 0.00
5:53 am 05:53 Clear 28 -2.2 25 -3.9 88 88 Calm 29.95 1014 10 16 0.00 0.00
6:53 am 06:53 Sunny 26 -3.3 24 -4.4 92 92 Calm 29.98 1015 10 16 0.00 0.00
7:53 am 07:53 Sunny 31 -0.6 28 -2.2 89 89 WSW 3 6 30.00 1016 10 16 0.00 0.00
8:53 am 08:53 Sunny 38 3.3 33 0.6 83 83 WSW 6 9 30.00 1016 10 16 0.00 0.00
9:53 am 09:53 Sunny 46 7.8 34 1.1 63 63 SW 17 28 29.99 1016 10 16 0.00 0.00
10:53 am 10:53 Sunny 50 10 33 0.6 52 52 SW 17 28 29.99 1016 10 16 0.00 0.00
11:53 am 11:53 Sunny 53 11.7 31 -0.6 43 43 SW 16 26 29.98 1015 10 16 0.00 0.00
12:53 pm 12:53 Sunny 57 13.9 28 -2.2 33 33 SW 14 22 29.96 1015 10 16 0.00 0.00
1:53 pm 13:53 Sunny 59 15 25 -3.9 27 27 SW 14 22 29.94 1014 10 16 0.00 0.00
2:53 pm 14:53 Sunny 61 16.1 25 -3.9 25 25 WSW 12 19 29.93 1013 10 16 0.00 0.00
3:53 pm 15:53 Sunny 62 16.7 22 -5.6 21 21 SW 12 19 29.92 1013 10 16 0.00 0.00
4:53 pm 16:53 Sunny 62 16.7 22 -5.6 21 21 SW 8 13 29.91 1013 10 16 0.00 0.00
5:53 pm 17:53 Sunny 63 17.2 21 -6.1 20 20 NW 8 13 29.90 1013 10 16 0.00 0.00
6:53 pm 18:53 Sunny 62 16.7 22 -5.6 21 21 WNW 3 6 29.92 1013 10 16 0.00 0.00
7:53 pm 19:53 Sunny 55 12.8 21 -6.1 26 26 S 6 9 29.92 1013 10 16 0.00 0.00
8:53 pm 20:53 Clear 44 6.7 22 -5.6 41 41 S 12 19 29.94 1014 10 16 0.00 0.00
9:53 pm 21:53 Clear 49 9.4 25 -3.9 39 39 SSW 14 22 29.93 1013 10 16 0.00 0.00
10:53 pm 22:53 Clear 49 9.4 24 -4.4 38 38 SSW 15 24 29.92 1013 10 16 0.00 0.00
11:53 pm 23:53 Clear 39 3.9 23 -5 53 53 SW 10 17 29.93 1014 10 16 0.00 0.00

Powered by AerisWeather